Home > Weather > Durham > Past weeks

Flag for United Kingdom Past Weather in Durham, England, United Kingdom — Yesterday and Last 2 Weeks

Now
50 °F

Partly sunny.


Feels Like: 45 °F
Forecast: 50 / 54 °F
Wind: 14 mph from North

Location: Newcastle

Current Time: May 31, 2016 at 7:03:05 AM

Latest Report: May 31, 2016 at 6:20 AM


Visibility: N/A

Pressure: 30.18 "Hg

Humidity: 88%

Dew Point: 46 °F

Location of DurhamLocation

Past Weather in Durham — Graph

°F

Durham Temperature Yesterday

Maximum temperature yesterday: 61 °F (at 5:20 PM)
Minimum temperature yesterday: 46 °F (at 1:50 AM)
Average temperature yesterday: 52 °F

High & Low Weather Summary for the Past Weeks

 TemperatureHumidityPressure
High64 °F (May 17, 2:50 PM)100% (May 25, 10:50 PM)30.27 "Hg (May 25, 10:50 PM)
Low39 °F (May 17, 4:50 AM)43% (May 22, 3:20 PM)29.53 "Hg (May 18, 4:20 AM)
Average52 °F79%29.95 "Hg
* Reported May 16 5:20 AM — May 31 5:20 AM, Durham, Weather by CustomWeather, © 2016

Note: Actual official high and low records may vary slightly from our data, if they occured in-between our weather recording intervals... More about our weather records

Advertising

Durham Weather History for the Previous 24 Hours

Scroll right to see more
 ConditionsComfort  
Time TempWeatherWind HumidityBarometerVisibility
5:20 AM
Tue, May 31
50 °FPassing clouds.16 mph88%30.18 "HgN/A
4:50 AM50 °FPassing clouds.16 mph88%30.18 "HgN/A
4:20 AM50 °FPassing clouds.17 mph88%30.18 "HgN/A
3:50 AM50 °FPassing clouds.17 mph88%30.18 "HgN/A
3:20 AM50 °FPassing clouds.18 mph88%30.18 "HgN/A
2:50 AM50 °FPassing clouds.13 mph88%30.18 "HgN/A
2:20 AM50 °FPassing clouds.14 mph88%30.18 "HgN/A
1:50 AM50 °FPassing clouds.13 mph88%30.18 "HgN/A
1:20 AM48 °FPassing clouds.13 mph87%30.18 "HgN/A
12:50 AM48 °FClear.10 mph87%30.18 "Hg10 mi
12:20 AM50 °FClear.12 mph82%30.18 "Hg10 mi
11:50 PM
Mon, May 30
50 °FClear.13 mph82%30.18 "Hg10 mi
11:20 PM50 °FClear.12 mph82%30.18 "Hg10 mi
10:50 PM50 °FClear.12 mph82%30.18 "Hg10 mi
10:20 PM52 °FSunny.13 mph77%30.18 "Hg10 mi
9:50 PM52 °FPassing clouds.12 mph77%30.18 "HgN/A
9:20 PM54 °FPassing clouds.10 mph72%30.18 "HgN/A
8:50 PM55 °FPassing clouds.13 mph72%30.18 "HgN/A
8:20 PM57 °FPassing clouds.15 mph67%30.18 "HgN/A
7:50 PM57 °FPassing clouds.13 mph72%30.15 "HgN/A
7:20 PM59 °FPassing clouds.13 mph68%30.15 "HgN/A
6:50 PM59 °FPassing clouds.14 mph68%30.15 "HgN/A
6:20 PM61 °FPassing clouds.15 mph63%30.15 "HgN/A
5:50 PM61 °FPassing clouds.16 mph63%30.15 "HgN/A
5:20 PM61 °FPassing clouds.15 mph68%30.15 "HgN/A
4:50 PM59 °FPassing clouds.15 mph72%30.15 "HgN/A
4:20 PM57 °FPassing clouds.14 mph77%30.15 "HgN/A
3:50 PM55 °FPartly sunny.14 mph88%30.18 "HgN/A
3:20 PM55 °FPartly sunny.14 mph82%30.18 "HgN/A
2:50 PM55 °FPartly sunny.13 mph82%30.18 "HgN/A
1:50 PM55 °FPartly sunny.13 mph88%30.15 "HgN/A
1:20 PM54 °FPartly sunny.14 mph94%30.15 "HgN/A
12:50 PM54 °FPartly sunny.13 mph94%30.15 "HgN/A
12:20 PM54 °FPartly sunny.12 mph94%30.15 "HgN/A
11:50 AM52 °FPartly sunny.12 mph100%30.15 "HgN/A
11:20 AM52 °FPartly sunny.12 mph94%30.15 "HgN/A
10:50 AM50 °FPartly sunny.13 mph100%30.15 "HgN/A
10:20 AM50 °FPartly sunny.13 mph100%30.15 "HgN/A
9:50 AM50 °FPartly sunny.12 mph94%30.15 "HgN/A
9:20 AM50 °FPartly sunny.10 mph94%30.15 "HgN/A
8:50 AM50 °FPartly sunny.10 mph94%30.12 "HgN/A
8:20 AM48 °FPartly sunny.10 mph100%30.12 "Hg4 mi
7:50 AM48 °FPartly sunny.10 mph94%30.12 "Hg4 mi
7:20 AM48 °FDrizzle. Partly sunny.12 mph94%30.12 "Hg3 mi
Weather by CustomWeather, © 2016

See weather overviewHow to use our weather pages